• In Hungary
  • List of Countries
  • For 7 days
  • Water Temperature
  • Satellite Maps
  • Weather Map
  • News
  • Weather Widgets
  • user-avatar
    Login

    Hourly Weather Dobrovelichkovka

    Today, 26 September, Wednesday

    Time Temperature Precipitation Wind Pressure Humidity
    00:00 +5°C° 0 mm 4 mps 753 mmHg 73%
    01:00 +5°C° 0 mm 4 mps 753 mmHg 75%
    02:00 +4°C° 0 mm 4 mps 754 mmHg 78%
    03:00 +4°C° 0 mm 4 mps 754 mmHg 80%
    04:00 +4°C° 0 mm 4 mps 754 mmHg 82%
    05:00 +4°C° 0 mm 4 mps 755 mmHg 84%
    06:00 +3°C° 0 mm 5 mps 755 mmHg 80%
    07:00 +5°C° 0 mm 5 mps 756 mmHg 77%
    08:00 +6°C° 0 mm 5 mps 756 mmHg 74%
    09:00 +7°C° 0 mm 5 mps 756 mmHg 65%
    10:00 +9°C° 0 mm 5 mps 757 mmHg 56%
    11:00 +10°C° 0 mm 5 mps 757 mmHg 47%
    12:00 +10°C° 0 mm 5 mps 757 mmHg 45%
    13:00 +10°C° 0 mm 5 mps 757 mmHg 43%
    14:00 +12°C° 0 mm 5 mps 757 mmHg 40%
    15:00 +11°C° 0 mm 4 mps 757 mmHg 42%
    16:00 +11°C° 0 mm 3 mps 757 mmHg 43%
    17:00 +11°C° 0 mm 3 mps 757 mmHg 45%
    18:00 +9°C° 0 mm 2 mps 757 mmHg 48%
    19:00 +8°C° 0 mm 2 mps 757 mmHg 51%
    20:00 +7°C° 0 mm 2 mps 757 mmHg 54%
    21:00 +7°C° 0 mm 2 mps 757 mmHg 55%
    22:00 +6°C° 0 mm 2 mps 757 mmHg 56%
    23:00 +6°C° 0 mm 2 mps 757 mmHg 57%

    Tomorrow, 27 September, Thursday

    Time Temperature Precipitation Wind Pressure Humidity
    00:00 +6°C° 0 mm 2 mps 757 mmHg 58%
    01:00 +5°C° 0 mm 2 mps 756 mmHg 59%
    02:00 +4°C° 0 mm 3 mps 756 mmHg 60%
    03:00 +4°C° 0 mm 3 mps 756 mmHg 61%
    04:00 +4°C° 0 mm 3 mps 755 mmHg 62%
    05:00 +4°C° 0 mm 4 mps 755 mmHg 62%
    06:00 +5°C° 0 mm 4 mps 754 mmHg 59%
    07:00 +6°C° 0 mm 5 mps 754 mmHg 56%
    08:00 +8°C° 0 mm 6 mps 754 mmHg 52%
    09:00 +9°C° 0 mm 6 mps 754 mmHg 48%
    10:00 +11°C° 0 mm 7 mps 754 mmHg 44%
    11:00 +14°C° 0 mm 7 mps 753 mmHg 40%
    12:00 +14°C° 0 mm 7 mps 753 mmHg 39%
    13:00 +15°C° 0 mm 7 mps 753 mmHg 39%
    14:00 +15°C° 0 mm 7 mps 752 mmHg 39%
    15:00 +14°C° 0 mm 6 mps 752 mmHg 41%
    16:00 +14°C° 0 mm 5 mps 751 mmHg 44%
    17:00 +14°C° 0 mm 4 mps 751 mmHg 46%
    18:00 +13°C° 0 mm 4 mps 751 mmHg 51%
    19:00 +12°C° 0 mm 4 mps 751 mmHg 56%
    20:00 +11°C° 0 mm 3 mps 751 mmHg 61%
    21:00 +10°C° 0 mm 3 mps 752 mmHg 67%
    22:00 +10°C° 0 mm 3 mps 752 mmHg 72%
    23:00 +9°C° 0 mm 2 mps 752 mmHg 77%

    Day after tomorrow, 28 September, Friday

    Time Temperature Precipitation Wind Pressure Humidity
    00:00 +9°C° 0 mm 2 mps 751 mmHg 80%
    01:00 +9°C° 0 mm 2 mps 751 mmHg 83%
    02:00 +9°C° 0 mm 2 mps 751 mmHg 86%
    03:00 +8°C° 0 mm 2 mps 751 mmHg 87%
    04:00 +8°C° 0 mm 2 mps 750 mmHg 89%
    05:00 +8°C° 0 mm 2 mps 750 mmHg 90%
    06:00 +9°C° 0 mm 2 mps 750 mmHg 86%
    07:00 +10°C° 0 mm 2 mps 750 mmHg 81%
    08:00 +12°C° 0 mm 3 mps 750 mmHg 77%
    09:00 +14°C° 0 mm 3 mps 749 mmHg 71%
    10:00 +17°C° 0 mm 3 mps 749 mmHg 64%
    11:00 +19°C° 0 mm 3 mps 749 mmHg 58%
    12:00 +19°C° 0 mm 4 mps 748 mmHg 56%
    13:00 +20°C° 0 mm 4 mps 748 mmHg 53%
    14:00 +21°C° 0 mm 4 mps 747 mmHg 51%
    15:00 +21°C° 0 mm 3 mps 747 mmHg 54%
    16:00 +20°C° 0 mm 3 mps 746 mmHg 57%
    17:00 +19°C° 0 mm 2 mps 746 mmHg 60%
    18:00 +18°C° 0 mm 2 mps 746 mmHg 63%
    19:00 +17°C° 0 mm 2 mps 746 mmHg 67%
    20:00 +16°C° 0 mm 2 mps 746 mmHg 71%
    21:00 +15°C° 0 mm 2 mps 746 mmHg 72%
    22:00 +15°C° 0 mm 2 mps 746 mmHg 73%
    23:00 +15°C° 0 mm 2 mps 745 mmHg 74%

    29 September, Saturday

    Time Temperature Precipitation Wind Pressure Humidity
    00:00 +14°C° 0 mm 2 mps 745 mmHg 75%
    01:00 +14°C° 0 mm 2 mps 745 mmHg 76%
    02:00 +14°C° 0 mm 2 mps 745 mmHg 78%
    03:00 +13°C° 0 mm 2 mps 745 mmHg 79%
    04:00 +13°C° 0 mm 1 mps 745 mmHg 80%
    05:00 +12°C° 0 mm 1 mps 745 mmHg 81%
    06:00 +13°C° 0 mm 1 mps 745 mmHg 77%
    07:00 +15°C° 0 mm 1 mps 745 mmHg 73%
    08:00 +15°C° 0 mm 0 mps 745 mmHg 68%
    09:00 +18°C° 0 mm 1 mps 745 mmHg 63%
    10:00 +19°C° 0 mm 1 mps 745 mmHg 58%
    11:00 +21°C° 0 mm 1 mps 745 mmHg 53%
    12:00 +20°C° 0.1 mm 2 mps 745 mmHg 53%
    13:00 +20°C° 0.1 mm 3 mps 745 mmHg 54%
    14:00 +20°C° 0.1 mm 4 mps 745 mmHg 54%
    15:00 +17°C° 0.1 mm 5 mps 745 mmHg 61%
    16:00 +16°C° 0.1 mm 6 mps 745 mmHg 69%
    17:00 +14°C° 0.1 mm 7 mps 746 mmHg 76%
    18:00 +12°C° 0.1 mm 7 mps 746 mmHg 77%
    19:00 +11°C° 0.1 mm 7 mps 747 mmHg 78%
    20:00 +11°C° 0.1 mm 7 mps 747 mmHg 79%
    21:00 +10°C° 0.1 mm 7 mps 748 mmHg 80%
    22:00 +10°C° 0.1 mm 7 mps 748 mmHg 80%
    23:00 +10°C° 0.1 mm 6 mps 748 mmHg 80%

    30 September, Sunday

    Time Temperature Precipitation Wind Pressure Humidity
    00:00 +10°C° 0 mm 6 mps 749 mmHg 80%
    01:00 +9°C° 0 mm 6 mps 749 mmHg 80%
    02:00 +9°C° 0 mm 6 mps 749 mmHg 79%
    03:00 +8°C° 0 mm 6 mps 750 mmHg 80%
    04:00 +8°C° 0 mm 6 mps 750 mmHg 80%
    05:00 +7°C° 0 mm 5 mps 751 mmHg 81%
    06:00 +8°C° 0 mm 6 mps 751 mmHg 77%
    07:00 +8°C° 0 mm 6 mps 751 mmHg 73%
    08:00 +9°C° 0 mm 6 mps 752 mmHg 70%
    09:00 +10°C° 0 mm 6 mps 752 mmHg 63%
    10:00 +11°C° 0 mm 6 mps 752 mmHg 56%
    11:00 +14°C° 0 mm 6 mps 752 mmHg 49%
    12:00 +14°C° 0 mm 6 mps 752 mmHg 47%
    13:00 +15°C° 0 mm 6 mps 752 mmHg 44%
    14:00 +15°C° 0 mm 6 mps 752 mmHg 42%
    15:00 +14°C° 0 mm 5 mps 752 mmHg 43%
    16:00 +14°C° 0 mm 4 mps 752 mmHg 45%
    17:00 +13°C° 0 mm 4 mps 752 mmHg 47%
    18:00 +12°C° 0 mm 4 mps 752 mmHg 50%
    19:00 +11°C° 0 mm 3 mps 752 mmHg 53%
    20:00 +10°C° 0 mm 3 mps 752 mmHg 55%
    21:00 +9°C° 0 mm 3 mps 752 mmHg 57%
    22:00 +9°C° 0 mm 3 mps 752 mmHg 58%
    23:00 +8°C° 0 mm 3 mps 752 mmHg 59%

    1 October, Monday

    Time Temperature Precipitation Wind Pressure Humidity
    00:00 +8°C° 0 mm 3 mps 751 mmHg 59%
    01:00 +8°C° 0 mm 3 mps 751 mmHg 60%
    02:00 +7°C° 0 mm 3 mps 751 mmHg 61%
    03:00 +7°C° 0 mm 3 mps 751 mmHg 61%
    04:00 +7°C° 0 mm 3 mps 750 mmHg 61%
    05:00 +5°C° 0 mm 3 mps 750 mmHg 61%
    06:00 +7°C° 0 mm 3 mps 750 mmHg 58%
    07:00 +7°C° 0 mm 4 mps 750 mmHg 55%
    08:00 +8°C° 0 mm 4 mps 750 mmHg 52%
    09:00 +11°C° 0 mm 4 mps 749 mmHg 47%
    10:00 +13°C° 0 mm 4 mps 749 mmHg 43%
    11:00 +15°C° 0 mm 4 mps 749 mmHg 39%
    12:00 +15°C° 0 mm 4 mps 748 mmHg 38%
    13:00 +17°C° 0 mm 4 mps 748 mmHg 37%
    14:00 +18°C° 0 mm 4 mps 747 mmHg 37%
    15:00 +17°C° 0 mm 3 mps 747 mmHg 40%
    16:00 +16°C° 0 mm 3 mps 746 mmHg 43%
    17:00 +16°C° 0 mm 3 mps 746 mmHg 46%
    18:00 +13°C° 0 mm 3 mps 746 mmHg 48%
    19:00 +12°C° 0 mm 3 mps 746 mmHg 50%
    20:00 +11°C° 0 mm 3 mps 745 mmHg 52%
    21:00 +11°C° 0 mm 3 mps 745 mmHg 53%
    22:00 +10°C° 0 mm 2 mps 745 mmHg 55%
    23:00 +10°C° 0 mm 2 mps 745 mmHg 56%
    Show more